Date String (YYYY-MM-DD hh:mm:ss) UTC,Instrument flags,Ambient pressure (hPa),Sample flow (lpm),Bypass flow (lpm),Sample temperature (°C),Ambient temperature (°C),ASC tube jacket temperature (°C),LED temperature (°C),Box temperature (°C),Sample RH (%),Span deviation,Mass concentration (μg/m³),Mass concentration (μg/m³),Mass concentration (μg/m³)
DateTimeUTC,F1_M11,P_M11,Q1_M11,Q2_M11,T1_M11,T2_M11,T3_M11,T4_M11,T5_M11,U1_M11,ZSPAN_M11,X0_M11,X2_M11,X1_M11
2021-08-31 12:00:00,,0823.4,4.99,0.00,29.9,28.7,00.0,39.0,31.6,11.3,0002.4,0028.17,0022.14,0021.42
2021-08-31 12:01:00,,0823.4,5.00,0.00,29.9,28.7,00.0,39.0,31.6,11.3,0002.1,0027.88,0021.93,0021.21
2021-08-31 12:02:00,,0823.4,5.01,0.00,29.9,28.8,00.0,39.0,31.6,11.3,0002.0,0027.56,0021.79,0021.09
2021-08-31 12:03:00,,0823.4,5.00,0.00,29.9,28.8,00.0,39.0,31.7,11.3,0002.0,0027.85,0021.70,0020.98
2021-08-31 12:04:00,,0823.4,5.02,0.00,29.9,28.9,00.0,39.0,31.7,11.2,0001.9,0028.03,0021.66,0020.93
2021-08-31 12:05:00,,0823.4,4.99,0.00,30.0,28.9,00.0,39.0,31.7,11.2,0001.8,0027.43,0021.59,0020.87
2021-08-31 12:06:00,,0823.4,5.00,0.00,30.0,28.9,00.0,39.0,31.7,11.2,0001.7,0026.95,0021.60,0020.86
2021-08-31 12:07:00,,0823.4,5.01,0.00,30.0,29.0,00.0,39.0,31.7,11.2,0001.8,0027.04,0021.54,0020.79
2021-08-31 12:08:00,,0823.4,5.00,0.00,30.0,29.0,00.0,39.0,31.8,11.2,0002.0,0027.18,0021.48,0020.70
2021-08-31 12:09:00,,0823.4,5.00,0.00,30.1,29.0,00.0,39.1,31.8,11.2,0002.1,0027.36,0021.34,0020.63
2021-08-31 12:10:00,,0823.5,5.00,0.00,30.1,29.0,00.0,39.1,31.8,11.2,0002.1,0027.38,0021.28,0020.55
2021-08-31 12:11:00,,0823.5,5.01,0.00,30.1,29.1,00.0,39.1,31.8,11.2,0001.9,0026.72,0021.15,0020.42
2021-08-31 12:12:00,,0823.6,5.00,0.00,30.1,29.1,00.0,39.1,31.9,11.2,0002.2,0027.03,0021.03,0020.28
2021-08-31 12:13:00,,0823.6,4.99,0.00,30.1,29.1,00.0,39.1,31.9,11.2,0002.5,0027.23,0020.88,0020.14
2021-08-31 12:14:00,,0823.6,5.01,0.00,30.1,29.2,00.0,39.1,31.9,11.3,0002.5,0026.74,0020.74,0020.03
2021-08-31 12:15:00,,0823.6,5.00,0.00,30.2,29.2,00.0,39.2,31.9,11.3,0002.6,0026.35,0020.65,0019.91
2021-08-31 12:16:00,,0823.6,5.00,0.00,30.2,29.2,00.0,39.2,31.9,11.3,0002.7,0026.28,0020.55,0019.79
2021-08-31 12:17:00,,0823.6,5.00,0.00,30.2,29.2,00.0,39.2,32.0,11.1,0002.6,0026.13,0020.38,0019.62
2021-08-31 12:18:00,,0823.6,5.01,0.00,30.2,28.7,00.0,39.2,31.8,11.1,0002.7,0025.76,0020.21,0019.45
2021-08-31 12:19:00,,0823.6,4.99,0.00,30.1,26.8,00.0,39.2,31.4,11.3,0002.9,0025.88,0020.07,0019.29
2021-08-31 12:20:00,,0823.6,5.00,0.00,29.9,26.5,00.0,39.1,31.3,11.3,0002.8,0025.34,0019.94,0019.12
2021-08-31 12:21:00,,0823.6,4.99,0.00,29.9,26.8,00.0,39.1,31.3,11.3,0002.7,0025.26,0019.78,0018.97
2021-08-31 12:22:00,,0823.6,5.00,0.00,29.8,27.2,00.0,39.1,31.3,11.6,0003.0,0025.16,0019.71,0018.90
2021-08-31 12:23:00,,0823.6,5.01,0.00,29.8,27.5,00.0,39.0,31.4,11.5,0003.1,0024.64,0019.58,0018.80
2021-08-31 12:24:00,,0823.6,4.98,0.00,29.8,27.8,00.0,39.0,31.4,11.5,0002.8,0024.08,0019.51,0018.73
2021-08-31 12:25:00,,0823.7,5.01,0.00,29.8,28.0,00.0,39.0,31.5,11.5,0002.7,0024.11,0019.42,0018.64
2021-08-31 12:26:00,,0823.7,5.00,0.00,29.8,28.2,00.0,39.0,31.5,11.5,0002.7,0024.52,0019.30,0018.55
2021-08-31 12:27:00,,0823.7,5.01,0.00,29.8,28.4,00.0,39.0,31.5,11.7,0002.8,0024.54,0019.26,0018.50
2021-08-31 12:28:00,,0823.7,4.99,0.00,29.8,28.5,00.0,39.0,31.6,11.8,0003.0,0024.59,0019.34,0018.54
2021-08-31 12:29:00,,0823.7,5.01,0.00,29.9,28.6,00.0,39.0,31.6,11.8,0002.9,0025.31,0019.48,0018.67
2021-08-31 12:30:00,,0823.7,5.00,0.00,29.9,28.7,00.0,39.0,31.6,11.7,0002.9,0025.35,0019.63,0018.84
2021-08-31 12:31:00,,0823.7,5.00,0.00,29.9,28.7,00.0,39.0,31.7,11.7,0002.9,0025.47,0019.79,0019.03
2021-08-31 12:32:00,,0823.7,5.00,0.00,29.9,28.8,00.0,39.0,31.7,11.6,0002.8,0025.75,0020.11,0019.33
2021-08-31 12:33:00,,0823.7,5.01,0.00,29.9,28.9,00.0,39.0,31.7,11.5,0002.6,0026.47,0020.58,0019.73
2021-08-31 12:34:00,,0823.7,5.00,0.00,30.0,28.9,00.0,39.0,31.7,11.5,0002.4,0027.09,0021.03,0020.15
2021-08-31 12:35:00,,0823.7,4.99,0.00,30.0,29.0,00.0,39.0,31.7,11.4,0002.4,0027.54,0021.41,0020.52
2021-08-31 12:36:00,,0823.7,5.00,0.00,30.0,29.0,00.0,39.0,31.8,11.4,0002.3,0028.41,0021.82,0020.90
2021-08-31 12:37:00,,0823.7,5.01,0.00,30.0,29.1,00.0,39.0,31.8,11.5,0002.3,0028.67,0022.22,0021.26
2021-08-31 12:38:00,,0823.7,5.00,0.00,30.1,29.1,00.0,39.1,31.9,11.5,0002.2,0029.49,0022.56,0021.61
2021-08-31 12:39:00,,0823.7,5.00,0.00,30.1,29.2,00.0,39.1,31.9,11.5,0002.0,0029.70,0022.82,0021.92
2021-08-31 12:40:00,,0823.8,5.00,0.00,30.1,29.2,00.0,39.1,31.9,11.5,0001.8,0029.41,0023.07,0022.19
2021-08-31 12:41:00,,0823.8,5.01,0.00,30.1,29.3,00.0,39.1,32.0,11.5,0001.6,0029.40,0023.28,0022.42
2021-08-31 12:42:00,,0823.8,5.00,0.00,30.2,29.3,00.0,39.1,32.0,11.5,0001.9,0030.36,0023.55,0022.66
2021-08-31 12:43:00,,0823.8,5.01,0.00,30.2,29.3,00.0,39.2,32.0,11.6,0002.1,0030.57,0023.71,0022.82
2021-08-31 12:44:00,,0823.7,4.98,0.00,30.2,29.3,00.0,39.2,32.0,11.4,0002.3,0030.41,0023.64,0022.80
2021-08-31 12:45:00,,0823.8,5.01,0.00,30.2,29.4,00.0,39.2,32.0,11.3,0002.4,0030.08,0023.39,0022.60
2021-08-31 12:46:00,,0823.8,4.99,0.00,30.3,29.4,00.0,39.2,32.0,11.3,0002.4,0029.96,0023.18,0022.42
2021-08-31 12:47:00,,0823.8,5.00,0.00,30.3,29.4,00.0,39.2,32.1,11.3,0002.5,0029.87,0022.90,0022.17
2021-08-31 12:48:00,,0823.8,5.01,0.00,30.3,28.6,00.0,39.2,31.9,11.4,0002.6,0029.35,0022.64,0021.93
2021-08-31 12:49:00,,0823.8,4.99,0.00,30.1,26.8,00.0,39.2,31.4,11.6,0002.4,0028.82,0022.50,0021.78
2021-08-31 12:50:00,,0823.8,5.01,0.00,30.0,26.7,00.0,39.2,31.3,11.6,0002.3,0028.75,0022.36,0021.64
2021-08-31 12:51:00,,0823.7,4.99,0.00,29.9,27.0,00.0,39.2,31.4,11.7,0002.3,0028.60,0022.10,0021.35
2021-08-31 12:52:00,,0823.8,5.01,0.00,29.9,27.4,00.0,39.1,31.4,11.8,0002.4,0028.62,0021.78,0021.06
2021-08-31 12:53:00,,0823.8,5.00,0.00,29.9,27.7,00.0,39.1,31.5,11.8,0002.5,0027.76,0021.54,0020.85
2021-08-31 12:54:00,,0823.8,4.99,0.00,29.9,28.0,00.0,39.1,31.5,11.8,0002.4,0028.44,0021.26,0020.59
2021-08-31 12:55:00,,0823.8,5.00,0.00,29.9,28.2,00.0,39.1,31.5,11.7,0002.2,0029.19,0020.94,0020.28
2021-08-31 12:56:00,,0823.8,5.00,0.00,29.9,28.4,00.0,39.1,31.6,11.8,0002.1,0029.49,0020.78,0020.13
2021-08-31 12:57:00,,0823.8,5.00,0.00,29.9,28.6,00.0,39.0,31.6,11.8,0002.1,0029.48,0020.57,0019.93
2021-08-31 12:58:00,,0823.8,4.99,0.00,29.9,28.7,00.0,39.0,31.7,11.8,0002.2,0028.66,0020.41,0019.76
2021-08-31 12:59:00,,0823.8,5.01,0.00,30.0,28.8,00.0,39.1,31.7,11.8,0002.3,0028.34,0020.26,0019.64
